Location: Avoca
(45.7167°N, 74.7000°W)
Time: 21:11:31
(UTC+00:00)

BlueWalker 3 - Pass Details

Date: 05 December 2022
Orbit: 499 x 517 km, 53.2° (Epoch: 04 February)

Event Time Altitude Azimuth Distance (km) Brightness Sun altitude
Rises 23:06:53 0° 300° (WNW) 2,628 6.3 -18.8°
Reaches altitude 10° 23:09:13 10° 309° (NW) 1,736 5.2 -19.2°
Enters shadow 23:12:48 38° 14° (NNE) 793 2.7 -19.8°
